Regional Weather Roundup
Issued by NWS

Home | Current Version | Previous Version | Graphics & Text | Print | Product List | Glossary On
Versions: 1 2 3 4 5 6 7 8 9 10 11 12 13 14 15 16 17 18 19 20 21 22 23 24 25 26 27 28 29 30 31 32 33 34 35 36 37 38 39 40 41 42 43 44 45 46 47 48 49 50
000
ASUS43 KDTX 211710
RWRMI
MICHIGAN HOURLY REGIONAL WEATHER ROUNDUP
NATIONAL WEATHER SERVICE DETROIT/PONTIAC MI
ISSUED BY NATIONAL WEATHER SERVICE GRAND RAPIDS MI
100 PM EDT FRI JUL 21 2017

NOTE: "FAIR" INDICATES FEW OR NO CLOUDS BELOW 12,000 FEET WITH NO
SIGNIFICANT WEATHER AND/OR OBSTRUCTION TO VISIBILITY.

MIZ047>049-052>055-059>063-066>070-074>076-081>083-211800-
SOUTHEAST LOWER MICHIGAN

CITY           SKY/WX    TMP DP  RH WIND       PRES   REMARKS
ADRIAN         MOSUNNY   84  67  56 SE9       30.01R
ALMA           CLOUDY    83  63  51 CALM      30.00F
ANN ARBOR      SUNNY     86  67  52 CALM      30.00R
BAD AXE        MOSUNNY   82  62  51 SW5       29.99F
DETROIT CITY   SUNNY     84  65  52 SE6       29.99S
DETROIT        PTSUNNY   86  68  54 S7        29.99S
FLINT          MOSUNNY   84  63  49 CALM      30.00S
GROSSE ILE     MOSUNNY   83  68  60 NE5       29.98S
HILLSDALE      MOSUNNY   81  64  57 E7        30.02R
HOWELL         SUNNY     82  64  55 NE3       30.01S

CITY           SKY/WX    TMP DP  RH WIND       PRES   REMARKS
JACKSON        SUNNY     85  64  49 VRB3      30.02R
LANSING        MOSUNNY   84  65  52 NE3       30.01S
MASON          MOSUNNY   81  67  63 SE3       30.01S
MONROE         PTSUNNY   83  68  60 E3        29.99S
MT. CLEMENS    PTSUNNY   82  68  63 E6        29.98S
PONTIAC        PTSUNNY   85  64  49 VRB5      30.00R
PORT HOPE        N/A     75  63  66 CALM      29.98S
PORT HURON     MOSUNNY   82  64  54 N5        30.00R
TRI CITIES     CLOUDY    84  67  56 VRB5      29.99F
YPSILANTI      MOSUNNY   87  67  51 VRB5      30.00R HX  90
$$
MIZ043>046-050>051-056>058-064>065-071>073-077>080-211800-
SOUTHWEST LOWER MICHIGAN

CITY           SKY/WX    TMP DP  RH WIND       PRES   REMARKS
BATTLE CREEK   MOSUNNY   84  65  52 E6        30.02R
BENTON HARBOR  MOSUNNY   83  66  56 CALM      30.02R
BIG RAPIDS     CLOUDY    86  59  40 SW7       30.00R
COLDWATER      MOSUNNY   82  67  60 CALM      30.02R
HOLLAND        CLOUDY    81  70  69 VRB3      30.02R
GRAND RAPIDS   CLOUDY    83  68  60 S5        30.00S
KALAMAZOO      MOSUNNY   85  64  49 SE5       30.01R
MARSHALL       SUNNY     82  67  60 CALM      30.01R
MOUNT PLEASANT CLOUDY    86  64  47 S7        29.99R
MUSKEGON       CLOUDY    80  70  71 SW9       30.00R
STURGIS        SUNNY     81  69  68 E3        30.02R
$$
MIZ016>042-211800-
NORTHERN LOWER MICHIGAN

CITY           SKY/WX    TMP DP  RH WIND       PRES   REMARKS
ALPENA         SUNNY     84  59  42 VRB5      29.97S
BEAVER ISLAND  PTSUNNY   73  67  83 W9        29.99R
BELLAIRE       SUNNY     83  56  39 W7        29.97S
CADILLAC       SUNNY     85  57  38 SW7       30.00S
CHARLEVOIX     SUNNY     79  66  65 W10       30.01
GAYLORD        SUNNY     83  53  35 NW8       29.99F
HOUGHTON LAKE  SUNNY     83  64  52 W6        30.00F
MANISTEE       SUNNY     86  63  45 W7        29.98R
OSCODA         SUNNY     83  60  46 SE8       29.96F
PELLSTON       SUNNY     83  60  45 SW13      29.97F
TRAVERSE CITY  PTSUNNY   86  59  39 VRB5      29.96R
LUDINGTON      MOSUNNY   81  68  63 W7        29.99S
$$
MIZ007>008-015-211800-
EASTERN UPPER MICHIGAN

CITY           SKY/WX    TMP DP  RH WIND       PRES   REMARKS
KINROSS        MOSUNNY   78  64  61 W7        29.96F
MACKINAC ISLAN MOSUNNY   74  66  76 W10       29.97F
NEWBERRY       CLOUDY    75  64  68 W9G17     29.98R
S. S. MARIE    SUNNY     79  64  60 W7        29.95S
$$
MIZ004>006-011>014-085-211800-
CENTRAL UPPER MICHIGAN

CITY           SKY/WX    TMP DP  RH WIND       PRES   REMARKS
MANISTIQUE     PTSUNNY   78  68  69 SW5       29.97S
ESCANABA       CLOUDY    77  69  76 S7        29.97S
MENOMINEE      CLOUDY    83  67  58 CALM      29.97F
SAWYER-GWINN   SUNNY     73  63  68 MISG      30.01R
$$
MIZ001>003-009>011-084-211800-
WESTERN UPPER MICHIGAN

CITY           SKY/WX    TMP DP  RH WIND       PRES   REMARKS
IRON MOUNTAIN  PTSUNNY   83  63  50 S3        29.97S
HOUGHTON       CLOUDY    72  54  53 S7        29.98S
COPPER HARBOR    N/A     64  55  72 CALM      29.96S
IRONWOOD       CLOUDY    75  66  73 NE3       29.98S
$$

ABBREVIATIONS USED IN REMARKS
   TC - TEMPERATURE IN CELSIUS
  WCI - WIND CHILL INDEX
   HX - HEAT INDEX
  VSB - VISIBILITY





USA.gov is the U.S. government's official web portal to all federal, state and local government web resources and services.